Date String (YYYY-MM-DD hh:mm:ss) UTC,Instrument flags,Ambient pressure (hPa),Sample flow (lpm),Bypass flow (lpm),Sample temperature (°C),Ambient temperature (°C),ASC tube jacket temperature (°C),LED temperature (°C),Box temperature (°C),Sample RH (%),Span deviation,Mass concentration (μg/m³),Mass concentration (μg/m³),Mass concentration (μg/m³)
DateTimeUTC,F1_M11,P_M11,Q1_M11,Q2_M11,T1_M11,T2_M11,T3_M11,T4_M11,T5_M11,U1_M11,ZSPAN_M11,X0_M11,X2_M11,X1_M11
2021-11-10 21:00:00,,0824.1,5.01,0.00,25.9,25.0,00.0,35.0,27.7,09.7,0000.0,0003.32,0002.20,0001.74
2021-11-10 21:01:00,,0824.2,5.01,0.00,25.9,25.0,00.0,35.0,27.7,09.7,0000.0,0003.21,0002.20,0001.71
2021-11-10 21:02:00,,0824.2,4.97,0.00,25.9,25.0,00.0,35.0,27.6,09.9,0000.0,0003.22,0002.18,0001.68
2021-11-10 21:03:00,,0824.1,5.01,0.00,25.9,24.9,00.0,35.0,27.6,09.9,0000.0,0003.18,0002.17,0001.67
2021-11-10 21:04:00,,0824.1,5.01,0.00,25.9,24.9,00.0,35.0,27.6,09.9,0000.0,0003.22,0002.18,0001.68
2021-11-10 21:05:00,,0824.1,4.99,0.00,25.9,24.9,00.0,35.0,27.6,09.9,0000.0,0003.21,0002.17,0001.67
2021-11-10 21:06:00,,0824.2,5.00,0.00,25.9,24.9,00.0,35.0,27.6,10.0,0000.0,0003.29,0002.18,0001.66
2021-11-10 21:07:00,,0824.1,5.00,0.00,25.9,24.9,00.0,35.0,27.6,10.0,0000.0,0003.37,0002.22,0001.64
2021-11-10 21:08:00,,0824.0,5.01,0.00,25.9,24.9,00.0,35.0,27.6,10.0,0000.0,0003.47,0002.23,0001.63
2021-11-10 21:09:00,,0824.1,4.99,0.00,25.9,25.0,00.0,35.0,27.7,09.9,0000.0,0003.57,0002.25,0001.62
2021-11-10 21:10:00,,0824.0,5.01,0.00,25.9,25.0,00.0,35.0,27.8,09.8,0000.0,0003.55,0002.24,0001.62
2021-11-10 21:11:00,,0824.1,5.00,0.00,25.9,25.0,00.0,35.0,27.7,09.9,0000.0,0003.67,0002.25,0001.63
2021-11-10 21:12:00,,0824.1,4.99,0.00,25.9,25.0,00.0,35.0,27.7,10.0,0000.0,0003.64,0002.22,0001.63
2021-11-10 21:13:00,,0824.1,5.00,0.00,25.9,25.0,00.0,35.0,27.7,09.9,0000.0,0003.57,0002.21,0001.65
2021-11-10 21:14:00,,0824.1,5.00,0.00,25.9,25.0,00.0,35.0,27.7,09.9,0000.0,0003.48,0002.19,0001.63
2021-11-10 21:15:00,,0824.1,5.00,0.00,25.9,25.0,00.0,35.0,27.7,09.9,0000.0,0003.42,0002.16,0001.61
2021-11-10 21:16:00,,0824.1,5.00,0.00,25.9,25.0,00.0,35.0,27.7,10.0,0000.0,0004.23,0002.14,0001.60
2021-11-10 21:17:00,,0824.2,4.99,0.00,25.9,25.0,00.0,35.0,27.7,10.1,0000.0,0004.11,0002.10,0001.60
2021-11-10 21:18:00,,0824.2,5.00,0.00,25.9,25.0,00.0,35.0,27.6,10.1,0000.0,0003.94,0002.04,0001.59
2021-11-10 21:19:00,,0824.2,5.01,0.00,25.9,25.0,00.0,35.0,27.6,10.0,0000.0,0003.88,0002.00,0001.59
2021-11-10 21:20:00,,0824.2,5.00,0.00,25.9,25.0,00.0,35.0,27.7,10.0,0000.0,0004.02,0002.00,0001.59
2021-11-10 21:21:00,,0824.2,4.99,0.00,25.9,25.0,00.0,35.0,27.8,10.0,0000.0,0005.15,0002.02,0001.58
2021-11-10 21:22:00,,0824.2,5.00,0.00,25.9,25.0,00.0,35.0,27.8,10.0,0000.0,0005.26,0002.02,0001.57
2021-11-10 21:23:00,,0824.3,5.01,0.00,25.9,25.1,00.0,35.0,27.7,09.9,0000.0,0005.27,0002.03,0001.57
2021-11-10 21:24:00,,0824.2,4.98,0.00,25.9,25.1,00.0,35.0,27.7,09.8,0000.0,0005.38,0002.04,0001.56
2021-11-10 21:25:00,,0824.2,5.01,0.00,25.9,25.1,00.0,35.0,27.7,09.8,0000.0,0005.45,0002.07,0001.58
2021-11-10 21:26:00,,0824.3,5.00,0.00,25.9,25.1,00.0,35.0,27.7,09.8,0000.0,0005.51,0002.09,0001.59
2021-11-10 21:27:00,,0824.2,5.01,0.00,25.9,25.1,00.0,35.0,27.7,09.8,0000.0,0005.26,0002.08,0001.60
2021-11-10 21:28:00,,0824.2,5.00,0.00,25.9,25.1,00.0,35.0,27.7,09.8,0000.0,0005.33,0002.08,0001.61
2021-11-10 21:29:00,,0824.2,5.00,0.00,25.9,25.1,00.0,35.0,27.7,09.8,0000.0,0005.44,0002.13,0001.62
2021-11-10 21:30:00,,0824.3,5.01,0.00,26.0,25.1,00.0,35.0,27.7,09.8,0000.0,0005.40,0002.16,0001.62
2021-11-10 21:31:00,,0824.3,4.99,0.00,26.0,25.1,00.0,35.0,27.7,09.7,0000.0,0005.22,0002.15,0001.63
2021-11-10 21:32:00,,0824.2,5.01,0.00,26.0,25.2,00.0,35.0,27.7,09.7,0000.0,0004.42,0002.17,0001.65
2021-11-10 21:33:00,,0824.3,5.00,0.00,26.0,25.2,00.0,35.0,27.7,09.8,0000.0,0005.28,0002.17,0001.67
2021-11-10 21:34:00,,0824.3,4.99,0.00,26.0,25.2,00.0,35.0,27.7,09.8,0000.0,0005.28,0002.18,0001.68
2021-11-10 21:35:00,,0824.3,5.01,0.00,26.0,25.2,00.0,35.0,27.6,09.7,0000.0,0005.19,0002.16,0001.67
2021-11-10 21:36:00,,0824.3,4.99,0.00,25.9,25.1,00.0,35.0,27.6,09.7,0000.0,0005.17,0002.15,0001.67
2021-11-10 21:37:00,,0824.4,5.00,0.00,26.0,25.1,00.0,35.0,27.7,09.8,0000.0,0005.19,0002.15,0001.66
2021-11-10 21:38:00,,0824.4,5.01,0.00,26.0,25.1,00.0,35.0,27.6,09.8,0000.0,0004.99,0002.18,0001.66
2021-11-10 21:39:00,,0824.4,4.99,0.00,26.0,25.1,00.0,35.0,27.7,09.5,0000.0,0004.43,0002.14,0001.64
2021-11-10 21:40:00,,0824.4,5.00,0.00,26.0,25.0,00.0,35.0,27.7,09.6,0000.0,0004.28,0002.07,0001.62
2021-11-10 21:41:00,,0824.4,5.00,0.00,26.0,25.0,00.0,35.0,27.8,09.5,0000.0,0004.24,0002.04,0001.61
2021-11-10 21:42:00,,0824.4,4.99,0.00,26.0,25.0,00.0,35.0,27.7,09.5,0000.0,0004.44,0001.97,0001.59
2021-11-10 21:43:00,,0824.4,4.99,0.00,26.0,25.1,00.0,35.0,27.7,09.5,0000.0,0005.18,0001.96,0001.58
2021-11-10 21:44:00,,0824.5,5.00,0.00,26.0,25.1,00.0,35.0,27.8,09.6,0000.0,0004.06,0001.94,0001.55
2021-11-10 21:45:00,,0824.4,4.99,0.00,26.0,25.1,00.0,35.0,27.8,09.4,0000.0,0003.79,0001.90,0001.52
2021-11-10 21:46:00,,0824.4,5.01,0.00,26.0,25.2,00.0,35.0,27.8,09.3,0000.0,0003.70,0001.85,0001.51
2021-11-10 21:47:00,,0824.4,5.00,0.00,26.1,25.2,00.0,35.1,27.9,09.3,0000.0,0003.66,0001.82,0001.49
2021-11-10 21:48:00,,0824.5,4.99,0.00,26.1,25.2,00.0,35.1,27.9,09.3,0000.0,0003.78,0001.83,0001.48
2021-11-10 21:49:00,,0824.4,5.01,0.00,26.1,25.3,00.0,35.1,27.9,09.3,0000.0,0003.79,0001.81,0001.47
2021-11-10 21:50:00,,0824.4,5.01,0.00,26.1,25.2,00.0,35.1,27.9,09.2,0000.0,0004.18,0001.81,0001.46
2021-11-10 21:51:00,,0824.4,5.00,0.00,26.1,25.2,00.0,35.1,27.8,09.2,0000.0,0004.57,0001.81,0001.46
2021-11-10 21:52:00,,0824.5,4.99,0.00,26.1,25.2,00.0,35.1,27.9,09.1,0000.0,0004.62,0001.82,0001.45
2021-11-10 21:53:00,,0824.4,5.00,0.00,26.1,25.3,00.0,35.1,27.9,09.2,0000.0,0004.48,0001.87,0001.46
2021-11-10 21:54:00,,0824.6,5.00,0.00,26.1,25.3,00.0,35.1,27.9,09.3,0000.0,0003.63,0001.85,0001.46
2021-11-10 21:55:00,,0824.4,5.00,0.00,26.1,25.3,00.0,35.1,27.9,09.1,0000.0,0003.56,0001.83,0001.46
2021-11-10 21:56:00,,0824.4,5.01,0.00,26.2,25.2,00.0,35.1,27.9,09.1,0000.0,0003.57,0001.83,0001.46
2021-11-10 21:57:00,,0824.4,5.00,0.00,26.2,25.2,00.0,35.1,27.9,09.0,0000.0,0003.64,0001.86,0001.45
2021-11-10 21:58:00,,0824.4,5.00,0.00,26.2,25.2,00.0,35.1,28.0,09.1,0000.0,0003.82,0001.90,0001.45
2021-11-10 21:59:00,,0824.4,5.00,0.00,26.2,25.2,00.0,35.1,27.9,09.0,0000.0,0003.90,0001.88,0001.46
